Content
SEND FEEDBACK

Daily
Averages
Monthly
Summary
United States of America

UPI, GUAM


Home > North America > United States > Guam
Elevation: 53 feet     Latitude: 13 34N     Longitude: 144 55E

WEATHER
 
SELECT A DAY
Number of Records: 208,860;   Date Range: 1/1/95 - 7/20/14
 
SHARE

PRINT THIS DATA

[ ← Previous Day ]
WEATHER ALMANAC - OCTOBER 1, 2013
[ Next Day → ]
[ °C ]   °F
Weather ElementAverageHighLow
Temperature81.3 °F88 °F (11:54 am)75.2 °F (7:15 pm)
Dewpoint77 °F79 °F (11:54 am)73.4 °F (6:39 pm)
Humidity87 %100 % (7:15 pm)74 % (10:54 am)
Barometer29.82 in29.87 in (9:34 am)29.76 in (2:54 pm)
Wind Speed5.4 mph15 mph (6:39 pm)
Wind Gust26.5 mph (6:39 pm)
Weather ElementAverage
Visibility9.8 mi
Wind DirectionSSE (160.6 °)

Weather ElementTotal
Precipitation0.04 in
Cooling Degree Days16.6 (Base 65)
Growing Degree Days31.6 (Base 50)
Averaged from 31 records on October 1, 2013
WEATHER CONDITIONS BREAKOUT
WIND DIRECTION BREAKOUT
WEATHER BY HOUR - OCTOBER 1, 2013
[ °C ]   °F
Local TimeTemperatureDewpointHumidityBarometerVisibilityWind DirectionWind SpeedGust SpeedPrecipitationEventsConditions
12:54 AM80.1 °F78.1 °F94 %29.81 in10.0 miCalmThunderstormThunderstorm
1:54 AM80.1 °F77.0 °F90 %29.79 in10.0 miCalmClear
2:54 AM78.8 °F77.0 °F94 %29.78 in10.0 miSE (140°)3.5 mphClear
3:54 AM80.1 °F77.0 °F90 %29.78 in10.0 miSSE (150°)3.5 mphClear
4:54 AM80.1 °F77.0 °F90 %29.78 in10.0 miSSE (160°)3.5 mphClear
5:54 AM80.1 °F77.0 °F90 %29.80 in10.0 miSouth (170°)3.5 mphClear
6:54 AM80.1 °F78.1 °F94 %29.82 in10.0 miSouth (180°)3.5 mphClear
7:54 AM82.9 °F78.1 °F85 %29.84 in10.0 miSouth (190°)4.6 mphClear
8:54 AM84.9 °F78.1 °F80 %29.85 in10.0 miSSW (200°)5.8 mphScattered Clouds
9:34 AM84.2 °F78.8 °F84 %29.87 in10.0 miSSE (160°)6.9 mphMostly Cloudy
9:43 AM86.0 °F78.8 °F79 %29.87 in10.0 miSSE (160°)9.2 mphScattered Clouds
9:54 AM84.9 °F78.1 °F80 %29.84 in10.0 miSouth (180°)8.1 mphPartly Cloudy
10:54 AM87.1 °F78.1 °F74 %29.82 in10.0 miSouth (170°)9.2 mphPartly Cloudy
11:54 AM88.0 °F79.0 °F75 %29.80 in10.0 miSSE (160°)10.4 mphPartly Cloudy
12:54 PM87.1 °F78.1 °F74 %29.78 in10.0 miSE (130°)9.2 mphPartly Cloudy
1:54 PM86.0 °F78.1 °F77 %29.77 in10.0 miSSE (160°)6.9 mphMostly Cloudy
2:54 PM84.9 °F77.0 °F77 %29.76 in10.0 miCalmOvercast
3:01 PM84.2 °F77.0 °F79 %29.79 in10.0 miSSE (160°)4.6 mphOvercast
3:54 PM86.0 °F78.1 °F77 %29.78 in10.0 miEast (80°)3.5 mphMostly Cloudy
4:54 PM84.9 °F78.1 °F80 %29.78 in10.0 miEast (90°)4.6 mphScattered Clouds
5:54 PM82.9 °F78.1 °F85 %29.81 in10.0 miWest (280°)6.9 mphMostly Cloudy
6:39 PM77.0 °F73.4 °F89 %29.86 in10.0 miNorth (10°)15.0 mph26.5 mph0.00 inRainLight Rain
6:54 PM75.9 °F73.9 °F94 %29.84 in4.0 miNorth (360°)9.2 mph18.4 mph0.02 inRainRain
7:15 PM75.2 °F75.2 °F100 %29.85 in10.0 miNorth (360°)6.9 mph0.01 inMostly Cloudy
7:24 PM75.2 °F75.2 °F100 %29.85 in10.0 miNorth (350°)5.8 mph0.01 inThunderstormThunderstorm
7:54 PM77.0 °F75.0 °F94 %29.84 in10.0 miNNW (340°)5.8 mphThunderstormThunderstorm
8:03 PM77.0 °F75.2 °F94 %29.87 in10.0 miNorth (350°)5.8 mph0.00 inRainLight Rain
8:54 PM78.1 °F75.9 °F93 %29.86 in10.0 miNorth (10°)3.5 mph0.00 inMostly Cloudy
9:54 PM78.1 °F75.9 °F93 %29.87 in10.0 miSSE (160°)3.5 mphPartly Cloudy
10:54 PM77.0 °F75.9 °F96 %29.86 in10.0 miCalmClear
11:54 PM77.0 °F75.9 °F96 %29.84 in10.0 miESE (120°)3.5 mphPartly Cloudy
Hourly data recorded from PGUM, located miles away from Upi, Guam







STORIES FROM OUR PARTNERS